Antwerp, Belgium

2:12 PM CEST on August 19, 2017 (GMT +0200)
Deurne

Weather History for EBAW - July, 2013

Change the Weather History Date:

Saturday, July 27, 2013

  Actual Average Record
Temperature  
Mean Temperature 71 °F -  
Max Temperature 78 °F 72 °F 86 °F (2001)
Min Temperature 64 °F 56 °F 48 °F (2004)
Cooling Degree Days 6    
Growing Degree Days 21 (Base 50)    
Moisture  
Dew Point 66 °F    
Average Humidity 83    
Maximum Humidity 100    
Minimum Humidity 59    
Precipitation  
Precipitation 0.71 in - - ()
Sea Level Pressure  
Sea Level Pressure 29.77 in    
Wind  
Wind Speed 3 mph ()    
Max Wind Speed 18 mph    
Max Gust Speed 33 mph    
Visibility 4.6 miles    
Events Fog , Rain , Thunderstorm    
Averages and records for this station are not official NWS values.
T = Trace of Precipitation, MM = Missing Value Source: Averaged Metar Reports

Daily Weather History Graph

Daily Weather History Graph

Search for Another Location

Airport or City:

Trip Planner

Search our weather history database for the weather conditions in past years. The results will help you decide how hot, cold, wet, or windy it might be!

Date:

Astronomy

Jul. 27, 2013 Rise Set
Actual Time 5:59 AM CEST 9:36 PM CEST
Civil Twilight 5:18 AM CEST 10:17 PM CEST
Nautical Twilight 4:22 AM CEST 11:13 PM CEST
Astronomical Twilight 2:57 AM CEST 12:35 AM CEST
Moon 11:26 PM CEST (7/27) 12:08 PM CEST (7/27)
Length of Visible Light 16h 59m
Length of Day
15h 36m
Waning Gibbous, 73% of the Moon is Illuminated
Jul 27
Waning Gibbous
Jul 29
Last Quarter
Aug 6
New
Aug 14
First Quarter
Aug 21
Full

Hourly Weather History & Observations

Time (CEST) Temp. Dew Point Humidity Pressure Visibility Wind Dir Wind Speed Gust Speed Precip Events Conditions
12:20 AM 71.6 °F 68.0 °F 88% 29.86 in - Variable 1.2 mph - N/A   Mist
12:50 AM 69.8 °F 68.0 °F 94% 29.86 in - North 2.3 mph - N/A   Mist
1:20 AM 71.6 °F 68.0 °F 88% 29.86 in - Variable 1.2 mph - N/A   Mist
1:50 AM 69.8 °F 68.0 °F 94% 29.86 in 1.6 mi ESE 3.5 mph - N/A   Mist
2:00 AM 69 °F 67 °F 92% 29.87 in 1 mi ESE 2.2 mph - -   Mist
2:20 AM 69.8 °F 66.2 °F 88% 29.86 in 1.2 mi Variable 1.2 mph - N/A   Unknown
2:50 AM 68.0 °F 66.2 °F 94% 29.86 in 0.4 mi Variable 1.2 mph - N/A Fog Fog
3:20 AM 69.8 °F 66.2 °F 88% 29.86 in 1.7 mi NW 2.3 mph - N/A Fog Patches of Fog
3:50 AM 69.8 °F 66.2 °F 88% 29.86 in 1.6 mi NNW 2.3 mph - N/A   Unknown
4:20 AM 68.0 °F 66.2 °F 94% 29.83 in 0.4 mi ENE 1.2 mph - N/A Fog Fog
4:50 AM 68.0 °F 64.4 °F 88% 29.83 in 1.1 mi Variable 2.3 mph - N/A   Unknown
5:00 AM 68 °F 65 °F 87% 29.84 in 0 mi NNW 2.2 mph - - Fog Fog
5:20 AM 68.0 °F 64.4 °F 88% 29.83 in 1.4 mi North 2.3 mph - N/A   Mist
5:50 AM 68.0 °F 64.4 °F 88% 29.83 in 1.0 mi Variable 2.3 mph - N/A   Mist
6:20 AM 68.0 °F 64.4 °F 88% 29.80 in 1.4 mi Variable 1.2 mph - N/A Fog Shallow Fog
6:50 AM 68.0 °F 66.2 °F 94% 29.80 in 1.4 mi East 3.5 mph - N/A Fog Shallow Fog
7:20 AM 68.0 °F 66.2 °F 94% 29.80 in 1.7 mi NE 4.6 mph - N/A   Mist
7:50 AM 69.8 °F 66.2 °F 88% 29.80 in 1.7 mi East 3.5 mph - N/A   Mist
8:00 AM 69 °F 67 °F 89% 29.80 in 2 mi East 4.5 mph - -   Mist
8:20 AM 69.8 °F 68.0 °F 94% 29.80 in 1.7 mi Variable 2.3 mph - N/A   Mist
8:50 AM 71.6 °F 68.0 °F 88% 29.77 in 2.2 mi East 4.6 mph - N/A   Mist
9:20 AM 71.6 °F 68.0 °F 88% 29.77 in - SE 4.6 mph - N/A   Mist
9:50 AM 71.6 °F 68.0 °F 88% 29.77 in - ESE 5.8 mph - N/A Thunderstorm Mostly Cloudy
10:20 AM 66.2 °F 62.6 °F 88% 29.86 in 2.8 mi SW 10.4 mph - N/A Rain , Thunderstorm Thunderstorms and Rain
10:50 AM 64.4 °F 62.6 °F 94% 29.83 in 2.8 mi Variable 2.3 mph - N/A Rain , Thunderstorm Thunderstorms and Rain
11:00 AM 65 °F 63 °F 90% 29.83 in 3 mi South 2.2 mph - - Rain , Thunderstorm Thunderstorms and Rain
11:20 AM 64.4 °F 64.4 °F 100% 29.80 in 3.7 mi East 5.8 mph - N/A Rain , Thunderstorm Thunderstorms and Rain
11:50 AM 66.2 °F 64.4 °F 94% 29.77 in 5.0 mi East 4.6 mph - N/A Rain Light Rain
12:20 PM 66.2 °F 64.4 °F 94% 29.74 in 6.2 mi ENE 6.9 mph - N/A   Mostly Cloudy
12:50 PM 68.0 °F 64.4 °F 88% 29.74 in 6.2 mi NNW 4.6 mph - N/A   Partly Cloudy
1:20 PM 69.8 °F 64.4 °F 83% 29.77 in 6.2 mi Variable 1.2 mph - N/A   Scattered Clouds
1:50 PM 69.8 °F 64.4 °F 83% 29.77 in 6.2 mi South 4.6 mph - N/A   Mostly Cloudy
2:00 PM 70 °F 65 °F 78% 29.78 in 12 mi South 4.5 mph - -   Partly Cloudy
2:20 PM 69.8 °F 64.4 °F 83% 29.77 in 6.2 mi SSW 5.8 mph - N/A   Mostly Cloudy
2:50 PM 71.6 °F 66.2 °F 83% 29.77 in 6.2 mi SSW 5.8 mph - N/A   Mostly Cloudy
3:20 PM 71.6 °F 64.4 °F 78% 29.77 in 6.2 mi SW 4.6 mph - N/A   Mostly Cloudy
3:50 PM 73.4 °F 64.4 °F 73% 29.77 in 6.2 mi WSW 3.5 mph - N/A   Mostly Cloudy
4:20 PM 75.2 °F 64.4 °F 69% 29.74 in 6.2 mi Variable 3.5 mph - N/A   Mostly Cloudy
4:50 PM 75.2 °F 64.4 °F 69% 29.74 in 6.2 mi Variable 2.3 mph - N/A   Mostly Cloudy
5:00 PM 76 °F 64 °F 59% 29.75 in 16 mi 2.2 mph - -   Mostly Cloudy
5:20 PM 77.0 °F 64.4 °F 65% 29.74 in 6.2 mi SSW 6.9 mph - N/A   Scattered Clouds
5:50 PM 78.8 °F 64.4 °F 61% 29.74 in 6.2 mi SW 6.9 mph - N/A   Partly Cloudy
6:20 PM 77.0 °F 64.4 °F 65% 29.71 in 6.2 mi SSW 3.5 mph - N/A   Partly Cloudy
6:50 PM 78.8 °F 64.4 °F 61% 29.71 in 6.2 mi Variable 2.3 mph - N/A   Partly Cloudy
7:20 PM 77.0 °F 64.4 °F 65% 29.71 in 6.2 mi ESE 3.5 mph - N/A   Partly Cloudy
7:50 PM 77.0 °F 66.2 °F 69% 29.68 in - East 3.5 mph - N/A   Clear
8:00 PM 77 °F 66 °F 61% 29.70 in 16 mi East 2.2 mph - -   Partly Cloudy
8:20 PM 75.2 °F 68.0 °F 78% 29.68 in - East 4.6 mph - N/A   Clear
8:50 PM 75.2 °F 66.2 °F 73% 29.68 in - ENE 5.8 mph - N/A   Clear
9:20 PM 75.2 °F 68.0 °F 78% 29.65 in - ENE 6.9 mph - N/A   Clear
9:50 PM 73.4 °F 68.0 °F 83% 29.65 in - ENE 8.1 mph - N/A   Clear
10:20 PM 73.4 °F 68.0 °F 83% 29.65 in - ENE 8.1 mph - N/A   Clear
10:50 PM 73.4 °F 68.0 °F 83% 29.62 in - ENE 8.1 mph - N/A   Clear
11:00 PM 72 °F 67 °F 81% 29.65 in 16 mi ENE 8.9 mph - - Rain Light Rain Showers
11:20 PM 71.6 °F 68.0 °F 88% 29.65 in 6.2 mi ENE 8.1 mph - N/A Rain Light Rain Showers
11:50 PM 66.2 °F 64.4 °F 94% 29.77 in 1.0 mi West 18.4 mph 33.4 mph N/A Rain Heavy Rain Showers